Regional Weather Roundup
Issued by NWS

Current Version | Previous Version | Graphics & Text | Print | Product List | Glossary On
Versions: 1 2 3 4 5 6 7 8 9 10 11 12 13 14 15 16 17 18 19 20 21 22 23 24 25 26 27 28 29 30 31 32 33 34 35 36 37 38 39 40 41 42 43 44 45 46 47 48 49 50
000
ASHW40 PHFO 261632
RWRHI

WEATHER ROUNDUP FOR HAWAII
NATIONAL WEATHER SERVICE HONOLULU HI
600 AM HST WED JUL 26 2017

THIS IS AN AUTOMATED REPORT THAT HAS NOT BEEN QUALITY CONTROLLED.

NOTE..."FAIR" INDICATES FEW OR NO CLOUDS BELOW 12,000 FEET WITH NO
SIGNIFICANT WEATHER AND/OR OBSTRUCTIONS TO VISIBILITY.

* - THESE SITES REPORT LIMITED FIELDS
# - BUOY DATA PROVIDED BY PACIFIC ISLANDS OCEAN OBSERVING SYSTEM.

HIZ001>004-261700-
KAUAI-NIIHAU-

CITY           SKY/WX    TMP DP  RH WIND       PRES   REMARKS
LIHUE APT      PTCLDY    79  73  82 E14       30.10R
PORT ALLEN*      N/A     77 N/A N/A E15G24      N/A
POIPU*           N/A     79 N/A N/A NE9G20      N/A
PRINCEVILLE*     N/A     73 N/A N/A SE5         N/A
KOKOLE POINT*  NOT AVBL
MOLOAA DAIRY*    N/A     77  72  83 E7          N/A
WAIMEA HTS*    NOT AVBL
PUU OPAE*      NOT AVBL
PUU LUA*       NOT AVBL
MAKAHA RIDGE*    N/A     70  63  78 CALM        N/A
$$

HIZ005>011-261700-
OAHU-

CITY           SKY/WX    TMP DP  RH WIND       PRES   REMARKS
HONOLULU       LGT RAIN  77  69  76 NE12      30.07R
KALAELOA       CLOUDY    78  69  73 CALM      30.08R
KANEOHE MCB    MOCLDY    77  72  84 E9        30.05
WHEELER FIELD  CLOUDY    73  70  88 N6        30.08
BELLOWS*         N/A    N/A N/A N/A NE20        N/A
KAHUKU*          N/A    N/A N/A N/A E7G15       N/A
WHEELER*       NOT AVBL
WAIANAE HARBOR NOT AVBL
DILLINGHAM*      N/A     72  70  94 CALM        N/A
KAHUKU TRN*      N/A     73  68  83 W6G14       N/A
KAWAILOA*        N/A     72  68  88 E12G21      N/A
KII*             N/A     79  73  83 E14G22      N/A
MAKUA RANGE*     N/A     73  66  78 NW3         N/A
OAHU FOREST NW NOT AVBL
SCHOFIELD BRK*   N/A     72  68  88 CALM        N/A
SCHOFIELD S*   NOT AVBL
WAIANAE VLY*   NOT AVBL
KUAOKALA*      NOT AVBL
HONOULIUULI*   NOT AVBL
MOKUOLOE IS*   NOT AVBL
PALEHUA*       NOT AVBL
WAIAWA PHB*    NOT AVBL
$$

HIZ012>013-261700-
MOLOKAI-

CITY           SKY/WX    TMP DP  RH WIND       PRES   REMARKS
MOLOKAI AIRPT  CLEAR     77  69  76 NE12G18   30.08R
KALAUPAPA      NOT AVBL
MAKAPULAPAI*     N/A     79  68  69 E20G28      N/A
MOLOKAI 1*     NOT AVBL
PUU ALII*        N/A     61  61 100 N3G13       N/A
$$

HIZ016-261700-
KAHOOLAWE-

CITY           SKY/WX    TMP DP  RH WIND       PRES   REMARKS
KAHOOLAWE*     NOT AVBL
HAKIOAWA*        N/A     73  71  93 MISG        N/A
HONOKANAIA*      N/A     79  69  70 NE12G21   29.97F
KANELOA*         N/A     75  70  83 NE12G26   30.11
KEALIALALO*    NOT AVBL
LUA MAKIKA*    NOT AVBL
$$

HIZ014>015-261700-
LANAI-

CITY           SKY/WX    TMP DP  RH WIND       PRES   REMARKS
LANAI CITY     MOCLDY    71  68  90 NE7       30.12R
LANAI 1*       NOT AVBL
$$

HIZ017>028-261700-
MAUI-

CITY           SKY/WX    TMP DP  RH WIND       PRES   REMARKS
KAHULUI        PTCLDY    77  72  84 NE20      30.06R
KAPALUA-W MAUI NOT AVBL
HANA AIRPORT   MOCLDY    73  72  94 S3        30.12R
HANA*          NOT AVBL
HALEAKALA SUMM   N/A     46  27  46 NE15G32     N/A
MAALAEA BAY*     N/A     77 N/A N/A N16G24      N/A
HALEAKALA*     NOT AVBL
KAUPO GAP*     NOT AVBL
KULA 1*          N/A    N/A N/A N/A SE3         N/A
$$

HIZ023>026-261700-
BIG ISLAND OF HAWAII COAST AND LOWER SLOPES-

CITY           SKY/WX    TMP DP  RH WIND       PRES   REMARKS
KAILUA KONA    PTCLDY    78  66  66 SE3       30.01R
HILO           CLOUDY    74  66  76 CALM      30.07R
HONOKAA*         N/A     72 N/A N/A VRB1        N/A
KAWAIHAE MWT*    N/A     77 N/A N/A NE7         N/A
KAWAIHAE*        N/A     77 N/A N/A NE3       30.03R
SOUTH POINT*     N/A     70 N/A N/A NW8         N/A
UPOLU AIRPORT* NOT AVBL
KAMUELA*       NOT AVBL
HAKALAU*         N/A     46  36  66 N2G8        N/A
KALOKO-HONOKO*   N/A     75  64  69 E3        30.01
PALI 2*          N/A     66  59  77 S14G21      N/A
KEALAKOMO*       N/A     79  64  61 VRB14G22    N/A
KAUPULEHU*     NOT AVBL
KAPAPALA*        N/A     61  60  97 N5          N/A
LOWER KAHUKU*    N/A     57  57 100 VRB2        N/A
PUHE CS*         N/A     75  64  69 NE3         N/A
PUHO CS*         N/A     78  64  60 E2          N/A
PTA KEAMUKU*   NOT AVBL
WAIKOLOA*      NOT AVBL
$$

HIZ027>028-261700-
BIG ISLAND OF HAWAII INTERIOR AND SUMMMITS-

CITY           SKY/WX    TMP DP  RH WIND       PRES   REMARKS
BRADSHAW FIELD CLOUDY    50  29  44 SE5       30.39R
MK VISITOR CEN   N/A     50   7  17 VRB8        N/A
MAUNA KEA*       N/A     34  -4  19 NE21        N/A  WCI  22
MAUNA LOA*       N/A     41   1  19 MISG        N/A
MAUNA LOA 1*   NOT AVBL
PTA KIPUKA*      N/A     75  61  60 E3          N/A
PTA RANGE 17*    N/A    N/A N/A N/A E3G9        N/A
PTA WEST*        N/A     77  68  73 SE9         N/A
NENE CABIN*      N/A    N/A N/A N/A N5          N/A
AHUMOA*        NOT AVBL
PTA PORTABLE*  NOT AVBL
PUU MALI*        N/A    N/A N/A N/A SE12        N/A
$$

HIC003-261700-
NORTHWEST ISLANDS-

CITY           SKY/WX    TMP DP  RH WIND       PRES   REMARKS
MIDWAY ISLAND  MOCLDY    79  75  89 E8        30.06R
MIDWAY NOS*      N/A     79 N/A N/A MISG      30.04S
FRENCH FRIGATE NOT AVBL
$$

PHZ110>124-180-261700-
BUOY REPORTS

STATION/POSITION TIME  TEMP    WIND        PRES    WAVE   SWELL
                       AIR SEA DIR/SP/G            HT/PER HT/DIR
                 (UTC) (F)     (DEG/KT/KT) (MB)    (FT/S) (FT/D)
BUOY 51001       1610   79 81  110/ 17/ 21 1019.5
BUOY 51101       1550   79 81   80/ 14/ 16 1019.6R   8/ 8   7/ 90
BUOY 51100       NOT AVBL
BUOY 51002       1610   80 80   70/ 17/ 21 1015.6
BUOY 51003       1550   81 82  100/ 12/ 14 1016.5R   7/ 8   7/ 90
BUOY 51004       1550      79   60/ 14/ 16 1015.6R   7/ 9   7/ 90
WAIMEA BAY#      1602      78                N/A     5/ 8
MOKAPU POINT#    1604      80                N/A     7/ 8   2/ 70
LANAI#           NOT AVBL
BARBERS PT 2#    NOT AVBL
PAUWELA#         1609      80                N/A     6/ 8   2/ 90
HILO#            1557      80                N/A     7/ 9   2/100
KANEOHE BAY#     1555      79                N/A     6/ 8
KANEOHE BAY 2#   NOT AVBL
HANALEI#         1552      81                N/A     5/ 9   2/ 90
KAHULUI HARBOR   1600   78 81   20/ 14/ 18 1018.3
HONOLULU HARBOR  1600   79 81   50/  4/  8 1018.9
PEARL HARBOR#    1600      81                N/A     3/ 9   2/160
KILO NALU        NOT AVBL
HILO HARBOR      1600   76 79   CALM  /  2 1018.0
MOKUOLOE         1536   79 82   90/ 10/ 13 1018.5R
NAWILIWILI       1600   79      60/ 10/ 15 1018.8
WHOTS BUOY       NOT AVBL
BUOY 51028       NOT AVBL
$$

......................KEY........................................
  SKY/WX - SKY CONDITIONS/PRESENT WEATHER
  TMP    - TEMPERATURE IN FAHRENHEIT
  DWPT   - DEWPOINT IN FAHRENHEIT
  RH     - RELATIVE HUMIDITY IN PERCENT
  WIND   - DIRECTION AND SPEED /MPH FOR ISLANDS...KTS FOR BUOYS/
  PRES   - MEAN SEA LEVEL PRESSURE IN INCHES OF HG
  VSB    - VISIBILITY IN MILES
  HX     - HEAT INDEX
  WCI    - WIND CHILL INDEX
  VRB    - VARIABLE WIND DIRECTION
  N/A    - NOT AVAILABLE




USA.gov is the U.S. government's official web portal to all federal, state and local government web resources and services.